Location: Guilderland
(42.7045°N, 73.9115°W)
Time: 15:21:09
(UTC+00:00)

Cosmos 2221 - Pass Details

Date: 24 January 2020
Orbit: 593 x 616 km, 82.5° (Epoch: 25 February)

Event Time Altitude Azimuth Distance (km) Brightness Sun altitude
Rises 23:48:19 0° 356° (N) 2,845 5.9 -20.2°
Reaches altitude 10° 23:50:34 10° 0° (N) 1,940 5.0 -20.6°
Enters shadow 23:53:06 33° 17° (NNE) 1,022 3.4 -21.0°
